sat.trackr.live / text

‹ back to catalog

STARLINK-35450

NORAD 65868 · 2025-223Q

PAYLOAD ACTIVE UNKNOWN

§ Identity

Operator
Country
US
Launch date
2025-10-03
Launch site
AFWTR
Launch vehicle
Mass (kg)
RCS (m²)

Purposes: comms

External: N2YO · Heavens-Above · Gunter

§ Orbital elements

Epoch: 2026-09-20T21:07:43.259520Z

Period
93.85 min
Inclination
53.1592°
Eccentricity
0.0000666
Mean motion
15.34364230 rev/d
Perigee alt
462.4 km
Apogee alt
463.3 km
Semi-major
6,840.9 km
B*
7.6577e-4
RAAN
103.7462°
Arg perigee
75.5745°
Mean anomaly
284.5332°
Rev number
5,414

§ Raw data

STARLINK-354501 65868U 25223Q   26263.88036180  .00025555  00000+0  76577-3 0  99962 65868  53.1592 103.7462 0000666  75.5745 284.5332 15.34364230 54146

JSON: /api/v1/satellites/65868 · /tle

For live sub-satellite position, see the globe view (requires WebGL).

§ Visibility from observer

Set your observer location to see the next 7 days of passes ≥ 10°. The values pass through the URL so the page stays shareable.

No JS? Fill the form by hand. The geolocation button needs JavaScript.